When you browse on this site, cookies collect data to enhance your experience and personalize the content and advertising you see.
Visit our Privacy Policy to learn more. By continuing to use the site, you agree to this use of cookies and data.
  • Em Portugal
  • Lista de países
  • Para 7 dias
  • Temperatura da água
  • Mapas de satélite
  • Mapa do tempo
  • Widgets de tempo
  • user-avatar
    Iniciar Sessão

    Previsão horária em Aleksandria

    Hoje, 25 Maio, Sábado

    Tempo Temperatura Precipitação Vento Pressão Humidade
    00:00 +23°C° 0 mm 5 m/s 761 mmHg 66%
    01:00 +22°C° 0 mm 4 m/s 761 mmHg 66%
    02:00 +22°C° 0 mm 4 m/s 760 mmHg 66%
    03:00 +22°C° 0 mm 4 m/s 761 mmHg 67%
    04:00 +22°C° 0 mm 4 m/s 761 mmHg 67%
    05:00 +21°C° 0 mm 4 m/s 761 mmHg 68%
    06:00 +22°C° 0 mm 4 m/s 761 mmHg 63%
    07:00 +23°C° 0 mm 4 m/s 762 mmHg 58%
    08:00 +25°C° 0 mm 4 m/s 761 mmHg 53%
    09:00 +26°C° 0 mm 4 m/s 762 mmHg 49%
    10:00 +27°C° 0 mm 4 m/s 762 mmHg 45%
    11:00 +28°C° 0 mm 4 m/s 762 mmHg 41%
    12:00 +28°C° 0 mm 4 m/s 762 mmHg 40%
    13:00 +28°C° 0 mm 5 m/s 761 mmHg 40%
    14:00 +29°C° 0 mm 5 m/s 761 mmHg 40%
    15:00 +28°C° 0 mm 5 m/s 761 mmHg 44%
    16:00 +27°C° 0 mm 5 m/s 761 mmHg 47%
    17:00 +26°C° 0 mm 5 m/s 761 mmHg 51%
    18:00 +25°C° 0 mm 5 m/s 761 mmHg 57%
    19:00 +23°C° 0 mm 4 m/s 761 mmHg 63%
    20:00 +22°C° 0 mm 4 m/s 761 mmHg 69%
    21:00 +22°C° 0 mm 4 m/s 761 mmHg 71%
    22:00 +22°C° 0 mm 3 m/s 762 mmHg 73%
    23:00 +21°C° 0 mm 3 m/s 762 mmHg 75%

    Amanhã, 26 Maio, Domingo

    Tempo Temperatura Precipitação Vento Pressão Humidade
    00:00 +21°C° 0 mm 3 m/s 762 mmHg 75%
    01:00 +21°C° 0 mm 2 m/s 762 mmHg 76%
    02:00 +20°C° 0 mm 2 m/s 761 mmHg 76%
    03:00 +20°C° 0 mm 2 m/s 761 mmHg 77%
    04:00 +20°C° 0 mm 2 m/s 761 mmHg 77%
    05:00 +20°C° 0 mm 2 m/s 761 mmHg 77%
    06:00 +21°C° 0 mm 2 m/s 761 mmHg 70%
    07:00 +23°C° 0 mm 2 m/s 761 mmHg 63%
    08:00 +24°C° 0 mm 2 m/s 761 mmHg 56%
    09:00 +26°C° 0 mm 3 m/s 761 mmHg 49%
    10:00 +27°C° 0 mm 3 m/s 761 mmHg 42%
    11:00 +29°C° 0 mm 3 m/s 761 mmHg 34%
    12:00 +29°C° 0 mm 4 m/s 761 mmHg 35%
    13:00 +29°C° 0 mm 5 m/s 760 mmHg 36%
    14:00 +30°C° 0 mm 5 m/s 760 mmHg 36%
    15:00 +29°C° 0 mm 5 m/s 760 mmHg 40%
    16:00 +28°C° 0 mm 5 m/s 759 mmHg 43%
    17:00 +27°C° 0 mm 5 m/s 759 mmHg 46%
    18:00 +26°C° 0 mm 5 m/s 759 mmHg 52%
    19:00 +25°C° 0 mm 5 m/s 759 mmHg 58%
    20:00 +23°C° 0 mm 5 m/s 760 mmHg 64%
    21:00 +22°C° 0 mm 4 m/s 760 mmHg 66%
    22:00 +22°C° 0 mm 4 m/s 760 mmHg 68%
    23:00 +22°C° 0 mm 3 m/s 760 mmHg 70%

    Depois de amanhã, 27 Maio, Segunda-feira

    Tempo Temperatura Precipitação Vento Pressão Humidade
    00:00 +22°C° 0 mm 3 m/s 760 mmHg 71%
    01:00 +21°C° 0 mm 3 m/s 759 mmHg 72%
    02:00 +21°C° 0 mm 3 m/s 759 mmHg 73%
    03:00 +21°C° 0 mm 3 m/s 759 mmHg 73%
    04:00 +20°C° 0 mm 2 m/s 759 mmHg 74%
    05:00 +20°C° 0 mm 2 m/s 759 mmHg 75%
    06:00 +23°C° 0 mm 2 m/s 759 mmHg 67%
    07:00 +24°C° 0 mm 3 m/s 759 mmHg 59%
    08:00 +26°C° 0 mm 3 m/s 759 mmHg 51%
    09:00 +27°C° 0 mm 3 m/s 759 mmHg 44%
    10:00 +29°C° 0 mm 4 m/s 759 mmHg 37%
    11:00 +32°C° 0 mm 4 m/s 759 mmHg 31%
    12:00 +32°C° 0 mm 5 m/s 759 mmHg 31%
    13:00 +33°C° 0 mm 5 m/s 759 mmHg 31%
    14:00 +33°C° 0 mm 6 m/s 758 mmHg 32%
    15:00 +32°C° 0 mm 6 m/s 758 mmHg 34%
    16:00 +30°C° 0 mm 6 m/s 758 mmHg 36%
    17:00 +29°C° 0 mm 6 m/s 758 mmHg 38%
    18:00 +28°C° 0 mm 5 m/s 758 mmHg 45%
    19:00 +26°C° 0 mm 5 m/s 758 mmHg 52%
    20:00 +25°C° 0 mm 5 m/s 759 mmHg 59%
    21:00 +23°C° 0 mm 4 m/s 759 mmHg 63%
    22:00 +23°C° 0 mm 4 m/s 759 mmHg 66%
    23:00 +22°C° 0 mm 3 m/s 759 mmHg 70%

    28 Maio, Terça-feira

    Tempo Temperatura Precipitação Vento Pressão Humidade
    00:00 +22°C° 0 mm 3 m/s 759 mmHg 71%
    01:00 +23°C° 0 mm 2 m/s 759 mmHg 72%
    02:00 +23°C° 0 mm 2 m/s 758 mmHg 72%
    03:00 +21°C° 0 mm 2 m/s 758 mmHg 73%
    04:00 +21°C° 0 mm 3 m/s 758 mmHg 73%
    05:00 +21°C° 0 mm 3 m/s 758 mmHg 73%
    06:00 +24°C° 0 mm 3 m/s 759 mmHg 64%
    07:00 +25°C° 0 mm 3 m/s 759 mmHg 56%
    08:00 +27°C° 0 mm 3 m/s 759 mmHg 47%
    09:00 +29°C° 0 mm 3 m/s 759 mmHg 41%
    10:00 +31°C° 0 mm 3 m/s 759 mmHg 34%
    11:00 +34°C° 0 mm 4 m/s 759 mmHg 28%
    12:00 +34°C° 0 mm 4 m/s 759 mmHg 27%
    13:00 +35°C° 0 mm 5 m/s 758 mmHg 26%
    14:00 +35°C° 0 mm 5 m/s 758 mmHg 25%
    15:00 +34°C° 0 mm 5 m/s 758 mmHg 29%
    16:00 +33°C° 0 mm 6 m/s 758 mmHg 32%
    17:00 +32°C° 0 mm 6 m/s 758 mmHg 35%
    18:00 +30°C° 0 mm 5 m/s 758 mmHg 42%
    19:00 +28°C° 0 mm 5 m/s 759 mmHg 49%
    20:00 +27°C° 0 mm 5 m/s 759 mmHg 55%
    21:00 +26°C° 0 mm 4 m/s 759 mmHg 58%
    22:00 +26°C° 0 mm 4 m/s 759 mmHg 60%
    23:00 +25°C° 0 mm 4 m/s 760 mmHg 62%

    29 Maio, Quarta-feira

    Tempo Temperatura Precipitação Vento Pressão Humidade
    00:00 +25°C° 0 mm 3 m/s 759 mmHg 62%
    01:00 +25°C° 0 mm 3 m/s 759 mmHg 62%
    02:00 +25°C° 0 mm 3 m/s 759 mmHg 63%
    03:00 +24°C° 0 mm 3 m/s 759 mmHg 62%
    04:00 +24°C° 0 mm 3 m/s 759 mmHg 62%
    05:00 +24°C° 0 mm 3 m/s 759 mmHg 62%
    06:00 +26°C° 0 mm 3 m/s 759 mmHg 55%
    07:00 +27°C° 0 mm 4 m/s 759 mmHg 49%
    08:00 +29°C° 0 mm 4 m/s 760 mmHg 43%
    09:00 +30°C° 0 mm 4 m/s 759 mmHg 38%
    10:00 +33°C° 0 mm 4 m/s 759 mmHg 33%
    11:00 +34°C° 0 mm 4 m/s 759 mmHg 29%
    12:00 +34°C° 0 mm 5 m/s 759 mmHg 29%
    13:00 +34°C° 0 mm 5 m/s 759 mmHg 28%
    14:00 +34°C° 0 mm 6 m/s 758 mmHg 28%
    15:00 +33°C° 0 mm 6 m/s 759 mmHg 35%
    16:00 +32°C° 0 mm 6 m/s 759 mmHg 42%
    17:00 +29°C° 0 mm 7 m/s 759 mmHg 48%
    18:00 +28°C° 0 mm 6 m/s 759 mmHg 53%
    19:00 +27°C° 0 mm 5 m/s 759 mmHg 58%
    20:00 +26°C° 0 mm 5 m/s 760 mmHg 62%
    21:00 +26°C° 0 mm 5 m/s 760 mmHg 63%
    22:00 +26°C° 0 mm 4 m/s 760 mmHg 64%
    23:00 +26°C° 0 mm 4 m/s 760 mmHg 65%

    30 Maio, Quinta-feira

    Tempo Temperatura Precipitação Vento Pressão Humidade
    00:00 +25°C° 0 mm 4 m/s 760 mmHg 65%
    01:00 +25°C° 0 mm 4 m/s 759 mmHg 66%
    02:00 +25°C° 0 mm 3 m/s 759 mmHg 66%
    03:00 +25°C° 0 mm 3 m/s 759 mmHg 66%
    04:00 +25°C° 0 mm 3 m/s 759 mmHg 67%
    05:00 +24°C° 0 mm 3 m/s 759 mmHg 67%
    06:00 +26°C° 0 mm 3 m/s 759 mmHg 59%
    07:00 +27°C° 0 mm 3 m/s 760 mmHg 52%
    08:00 +29°C° 0 mm 4 m/s 760 mmHg 45%
    09:00 +30°C° 0 mm 4 m/s 760 mmHg 43%
    10:00 +32°C° 0 mm 5 m/s 760 mmHg 41%
    11:00 +32°C° 0 mm 5 m/s 759 mmHg 39%
    12:00 +32°C° 0 mm 6 m/s 759 mmHg 40%
    13:00 +32°C° 0 mm 6 m/s 759 mmHg 40%
    14:00 +32°C° 0 mm 6 m/s 759 mmHg 41%
    15:00 +32°C° 0 mm 6 m/s 759 mmHg 44%
    16:00 +30°C° 0 mm 6 m/s 759 mmHg 47%
    17:00 +29°C° 0 mm 6 m/s 759 mmHg 50%
    18:00 +28°C° 0 mm 6 m/s 759 mmHg 55%
    19:00 +27°C° 0 mm 5 m/s 759 mmHg 60%
    20:00 +26°C° 0 mm 4 m/s 760 mmHg 64%
    21:00 +26°C° 0 mm 4 m/s 760 mmHg 65%
    22:00 +25°C° 0 mm 4 m/s 760 mmHg 65%
    23:00 +25°C° 0 mm 3 m/s 760 mmHg 65%
    Mostrar mais